Regional Weather Roundup
Issued by NWS

Home | Current Version | Previous Version | Graphics & Text | Print | Product List | Glossary On
Versions: 1 2 3 4 5 6 7 8 9 10 11 12 13 14 15 16 17 18 19 20 21 22 23 24 25 26 27 28 29 30 31 32 33 34 35 36 37 38 39 40 41 42 43 44 45 46 47 48 49 50
653
ASUS43 KIND 260959
RWRIN

WEATHER ROUNDUP FOR INDIANA
NATIONAL WEATHER SERVICE INDIANAPOLIS IN
600 AM EDT SUN MAR 26 2017

NOTE: "FAIR" INDICATES FEW OR NO CLOUDS BELOW 12,000 FEET WITH NO
SIGNIFICANT WEATHER AND/OR OBSTRUCTIONS TO VISIBILITY.

* - STATION DOES NOT REPORT WEATHER SUCH AS PRECIPITATION OR FOG.

+ - STATION NOT QUALITY CONTROLLED BY THE NATIONAL WEATHER SERVICE.
    USE DATA WITH CAUTION...ESPECIALLY DEWPOINT AND RELATIVE
    HUMIDITY OBSERVATIONS.

INZ001>003-010>013-019-020-261100-
NORTHWEST INDIANA

CITY           SKY/WX    TMP DP  RH WIND       PRES   REMARKS
GARY /AIRPORT/ LGT RAIN  52  52 100 SE14      29.88F
KNOX *+        CLOUDY    46  36  66 SE12      29.91S
MONTICELLO +   LGT RAIN  50  49  95 E7        29.89F

$$

LMZ046-743>745-261100-
SOUTHERN LAKE MICHIGAN

STATION/POSITION TIME  TEMP    WIND        PRES    WAVE
                       AIR SEA DIR/SP/G            HT
                 (UTC) (F)     (DEG/KT/KT) (MB)    (FT)
BURNS HARBOR     0940   51     140/ 11/ 14 1012.5F
MICHIGAN CITY    0930   48     110/ 10/ 13   N/A

$$

INZ004-005-014>016-021>024-261100-
NORTH CENTRAL INDIANA

CITY           SKY/WX    TMP DP  RH WIND       PRES   REMARKS
GOSHEN         LGT RAIN  44  41  89 SE7       29.95F FOG
SOUTH BEND     LGT RAIN  44  32  62 SE13      29.94S

$$

INZ006>009-017-018-025>027-261100-
NORTHEAST INDIANA

CITY           SKY/WX    TMP DP  RH WIND       PRES   REMARKS
ANGOLA *+      CLOUDY    39  39 100 E6        29.97S
FORT WAYNE     LGT RAIN  43  41  93 E8        29.97F FOG
KENDALLVILLE + LGT RAIN  40  40  99 SE7       29.97S

$$

INZ028-029-035-036-043>045-051>053-261100-
WEST CENTRAL INDIANA

CITY           SKY/WX    TMP DP  RH WIND       PRES   REMARKS
CRAWFORDSVL +  LGT RAIN  55  55 100 SE8       29.88F
LAFAYETTE      LGT RAIN  56  56 100 SE7       29.88F
TERRE HAUTE    LGT RAIN  58  55  90 SE12      29.87S

$$

INZ030>032-037>040-046>048-054>057-064-065-261100-
CENTRAL INDIANA

CITY           SKY/WX    TMP DP  RH WIND       PRES   REMARKS
INDIANAPOLIS   LGT RAIN  56  56 100 SE10      29.91F
-EAGLE CREEK   LGT RAIN  57  55  93 SE8       29.91S
KOKOMO +       LGT RAIN  52  51  97 E6        29.93S FOG
SHELBYVILLE    LGT RAIN  59  55  87 S13       29.93S

$$

INZ033-034-041-042-049-050-058-059-261100-
EAST CENTRAL INDIANA

CITY           SKY/WX    TMP DP  RH WIND       PRES   REMARKS
MUNCIE         LGT RAIN  58  55  90 S8        29.95F
RICHMOND +     CLOUDY    54  54 100 S6        29.97F

$$

INZ060-061-067>069-081>083-085>088-261100-
SOUTHWEST INDIANA

CITY           SKY/WX    TMP DP  RH WIND       PRES   REMARKS
EVANSVILLE     RAIN      59  55  87 S7        29.90S
HUNTINGBURG *+ CLOUDY    58  56  93 S9        29.92R

$$

INZ062-063-066-070>080-084-089>092-261100-
SOUTH CENTRAL AND SOUTHEAST INDIANA

CITY           SKY/WX    TMP DP  RH WIND       PRES   REMARKS
BLOOMINGTON    LGT RAIN  57  54  89 S10G20    29.90S
MADISON *+     CLOUDY    55  55 100 SE6       29.98F
SEYMOUR +      RAIN      59  57  94 SE8       29.94F

$$





USA.gov is the U.S. government's official web portal to all federal, state and local government web resources and services.